Overview Statistics Trail Chart Weather Telemetry Raw packets
 

This is the latest recevied weather packets stored in our database for station/object 4S6DRJ-13. If no packets are shown the sender has not sent any weather packets the latest 10 day(s).

<< 383 384 385 386 387 388 389 >>
Time Temp. Humidity Pressure Rain* Wind** Luminosity Snow
1787885618 28.89° C 82% 1011 hPa 0 mm 1.34 m/s, 253° 331 W/m² -
1787885557 28.89° C 82% 1010.9 hPa 0 mm 1.79 m/s, 190° 277 W/m² -
1787885504 28.89° C 82% 1010.9 hPa 0 mm 1.34 m/s, 185° 264 W/m² -
1787885434 28.89° C 82% 1010.9 hPa 0 mm 3.13 m/s, 211° 263 W/m² -
1787885373 28.89° C 82% 1010.8 hPa 0 mm 0.89 m/s, 192° 274 W/m² -
1787885313 28.89° C 81% 1010.8 hPa 0 mm 1.34 m/s, 354° 237 W/m² -
1787885252 28.89° C 81% 1010.8 hPa 0 mm 0.89 m/s, 236° 189 W/m² -
1787885190 28.89° C 82% 1010.9 hPa 0 mm 1.34 m/s, 210° 190 W/m² -
1787885129 28.89° C 82% 1010.7 hPa 0 mm 1.34 m/s, 253° 308 W/m² -
1787885068 28.89° C 82% 1010.6 hPa 0 mm 0.89 m/s, 286° 272 W/m² -
1787885007 28.89° C 82% 1010.8 hPa 0 mm 0.89 m/s, 252° 257 W/m² -
1787884947 28.89° C 82% 1010.6 hPa 0 mm 0.89 m/s, 229° 239 W/m² -
1787884885 28.89° C 82% 1010.9 hPa 0 mm 0.89 m/s, 250° 236 W/m² -
1787884824 28.89° C 82% 1010.8 hPa 0 mm 0.45 m/s, 320° 228 W/m² -
1787884764 28.89° C 82% 1010.9 hPa 0 mm 1.79 m/s, 234° 225 W/m² -
1787884702 28.89° C 82% 1010.9 hPa 0 mm 0.89 m/s, 204° 219 W/m² -
1787884642 28.89° C 82% 1010.8 hPa 0 mm 0.89 m/s, 235° 216 W/m² -
1787884581 28.89° C 82% 1010.8 hPa 0 mm 0.89 m/s, 109° 219 W/m² -
1787884520 28.89° C 82% 1010.7 hPa 0 mm 2.24 m/s, 188° 217 W/m² -
1787884458 28.89° C 81% 1010.7 hPa 0 mm 1.79 m/s, 256° 204 W/m² -
1787884397 28.89° C 81% 1010.6 hPa 0 mm 4.02 m/s, 196° 197 W/m² -
1787884336 28.89° C 82% 1010.7 hPa 0 mm 3.13 m/s, 309° 205 W/m² -
1787884275 28.89° C 82% 1010.6 hPa 0 mm 1.34 m/s, 210° 279 W/m² -
1787884214 28.89° C 83% 1010.5 hPa 0 mm 1.79 m/s, 221° 324 W/m² -
1787884153 28.89° C 83% 1010.6 hPa 0 mm 0.45 m/s, 238° 294 W/m² -

* Rain latest hour (hover to see other rain measurements)
** Current wind speed in m/s (hover to see current wind gust speed)